QPF
0.02 0.03 0.06 0.07 0.07 0.09 0.07 0.06 0.05 0.05 0.07 0.09 0.10 0.11 0.13 0.10 0.08 0.07 0.07 0.08 0.07 0.07 0.06 0.03 0.02 0.01 0.01 0.00 0.01 0.01 0.01 0.01 0.01 0.02 0.02 0.01 0.01 0.02 0.02 0.03 0.03 0.03 0.03
0.02 0.02 0.04 0.06 0.07 0.07 0.07 0.10 0.10 0.09 0.08 0.10 0.12 0.14 0.13 0.11 0.11 0.11 0.08 0.07 0.07 0.07 0.07 0.05 0.03 0.01 0.00 0.00 0.00 0.01 0.01 0.01 0.01 0.01 0.01 0.01 0.01 0.01 0.01 0.01 0.02 0.02 0.02
0.01 0.02 0.03 0.03 0.04 0.06 0.06 0.09 0.12 0.11 0.09 0.10 0.11 0.12 0.12 0.11 0.12 0.13 0.11 0.09 0.06 0.06 0.07 0.07 0.04 0.03 0.01 0.00 0.00 0.01 0.01 0.01 0.01 0.02 0.02 0.01 0.01 0.01 0.01 0.01 0.02 0.02 0.02
0.01 0.02 0.02 0.03 0.04 0.06 0.08 0.08 0.09 0.09 0.08 0.09 0.11 0.12 0.11 0.13 0.16 0.14 0.14 0.14 0.09 0.05 0.06 0.06 0.05 0.05 0.04 0.02 0.01 0.01 0.01 0.00 0.01 0.02 0.02 0.01 0.00 0.01 0.01 0.02 0.03 0.02 0.02
0.01 0.01 0.02 0.03 0.04 0.06 0.07 0.10 0.10 0.10 0.10 0.09 0.10 0.11 0.11 0.12 0.16 0.15 0.14 0.18 0.15 0.08 0.05 0.05 0.05 0.04 0.04 0.04 0.03 0.02 0.01 0.01 0.00 0.01 0.01 0.01 0.00 0.00 0.01 0.02 0.03 0.02 0.02
0.01 0.01 0.01 0.02 0.03 0.03 0.04 0.08 0.11 0.11 0.10 0.11 0.11 0.10 0.11 0.13 0.16 0.16 0.15 0.19 0.21 0.17 0.11 0.06 0.04 0.03 0.05 0.05 0.04 0.04 0.03 0.01 0.01 0.00 0.01 0.00 0.00 0.00 0.00 0.01 0.02 0.02 0.02
0.01 0.01 0.02 0.02 0.01 0.02 0.03 0.06 0.09 0.13 0.10 0.13 0.14 0.10 0.10 0.11 0.13 0.14 0.15 0.18 0.18 0.18 0.16 0.11 0.07 0.06 0.05 0.05 0.04 0.05 0.04 0.03 0.02 0.01 0.01 0.00 0.00 0.00 0.00 0.01 0.01 0.01 0.02
0.01 0.01 0.02 0.02 0.02 0.02 0.02 0.05 0.07 0.09 0.10 0.11 0.13 0.13 0.10 0.10 0.07 0.09 0.11 0.13 0.16 0.16 0.15 0.15 0.13 0.11 0.10 0.07 0.04 0.05 0.05 0.04 0.03 0.02 0.02 0.01 0.01 0.01 0.01 0.01 0.01 0.01 0.01
0.01 0.01 0.02 0.02 0.02 0.02 0.02 0.03 0.05 0.05 0.06 0.08 0.10 0.13 0.10 0.08 0.08 0.08 0.08 0.10 0.14 0.14 0.16 0.19 0.17 0.16 0.14 0.10 0.07 0.05 0.06 0.06 0.06 0.05 0.03 0.02 0.02 0.02 0.02 0.01 0.01 0.02 0.02
0.03 0.02 0.02 0.02 0.02 0.02 0.01 0.02 0.02 0.04 0.05 0.06 0.08 0.09 0.08 0.07 0.08 0.08 0.08 0.09 0.11 0.12 0.13 0.15 0.16 0.16 0.17 0.13 0.09 0.08 0.06 0.06 0.07 0.07 0.05 0.04 0.03 0.02 0.02 0.01 0.01 0.01 0.02
0.04 0.04 0.03 0.02 0.02 0.01 0.01 0.01 0.02 0.03 0.03 0.05 0.07 0.07 0.07 0.06 0.05 0.07 0.07 0.08 0.10 0.09 0.11 0.14 0.16 0.17 0.17 0.17 0.15 0.11 0.10 0.07 0.07 0.08 0.08 0.06 0.04 0.02 0.02 0.01 0.01 0.01 0.01
0.03 0.03 0.03 0.02 0.02 0.01 0.02 0.02 0.02 0.02 0.04 0.05 0.06 0.06 0.06 0.06 0.04 0.05 0.06 0.06 0.08 0.09 0.10 0.13 0.19 0.16 0.18 0.21 0.19 0.18 0.14 0.11 0.08 0.07 0.08 0.08 0.07 0.05 0.04 0.03 0.02 0.02 0.02
0.03 0.01 0.01 0.01 0.01 0.02 0.02 0.02 0.02 0.02 0.04 0.06 0.06 0.04 0.04 0.04 0.04 0.05 0.06 0.06 0.07 0.08 0.09 0.11 0.15 0.17 0.16 0.16 0.17 0.21 0.17 0.13 0.10 0.07 0.07 0.07 0.08 0.08 0.07 0.06 0.05 0.05 0.04
0.03 0.01 0.01 0.02 0.02 0.02 0.02 0.02 0.02 0.03 0.04 0.06 0.06 0.03 0.03 0.03 0.03 0.03 0.04 0.06 0.06 0.05 0.05 0.07 0.11 0.15 0.16 0.15 0.15 0.18 0.14 0.12 0.10 0.08 0.07 0.07 0.06 0.07 0.09 0.07 0.06 0.06 0.06
0.02 0.02 0.01 0.01 0.02 0.02 0.03 0.03 0.03 0.03 0.04 0.04 0.06 0.07 0.05 0.03 0.02 0.02 0.03 0.04 0.06 0.05 0.04 0.04 0.07 0.13 0.15 0.14 0.14 0.12 0.11 0.11 0.08 0.07 0.06 0.05 0.04 0.04 0.06 0.07 0.07 0.06 0.04
0.01 0.02 0.02 0.02 0.02 0.02 0.02 0.04 0.03 0.03 0.04 0.04 0.04 0.04 0.04 0.02 0.02 0.02 0.02 0.04 0.04 0.05 0.06 0.05 0.05 0.07 0.13 0.13 0.14 0.13 0.13 0.14 0.10 0.07 0.06 0.05 0.05 0.05 0.04 0.04 0.05 0.04 0.04
0.02 0.02 0.02 0.03 0.03 0.02 0.02 0.03 0.03 0.02 0.02 0.03 0.02 0.02 0.02 0.02 0.02 0.03 0.03 0.03 0.03 0.04 0.05 0.05 0.05 0.06 0.08 0.11 0.12 0.13 0.15 0.13 0.10 0.08 0.06 0.04 0.04 0.04 0.05 0.04 0.04 0.03 0.03
0.02 0.03 0.03 0.03 0.04 0.04 0.04 0.04 0.03 0.01 0.01 0.02 0.02 0.02 0.02 0.01 0.02 0.03 0.02 0.02 0.03 0.04 0.04 0.05 0.05 0.05 0.06 0.07 0.09 0.11 0.10 0.10 0.10 0.09 0.08 0.06 0.04 0.03 0.03 0.04 0.04 0.04 0.03
0.02 0.03 0.05 0.04 0.06 0.06 0.04 0.03 0.02 0.01 0.01 0.01 0.02 0.02 0.02 0.01 0.01 0.02 0.02 0.02 0.02 0.03 0.03 0.03 0.03 0.03 0.05 0.06 0.07 0.09 0.10 0.10 0.09 0.10 0.10 0.08 0.07 0.05 0.03 0.03 0.03 0.03 0.03
0.01 0.02 0.03 0.03 0.05 0.06 0.04 0.03 0.01 0.01 0.01 0.01 0.02 0.02 0.01 0.01 0.02 0.02 0.02 0.02 0.02 0.03 0.03 0.04 0.03 0.03 0.04 0.07 0.08 0.08 0.09 0.09 0.09 0.10 0.10 0.09 0.09 0.08 0.05 0.04 0.04 0.03 0.03
0.01 0.02 0.01 0.02 0.03 0.05 0.06 0.03 0.01 0.01 0.01 0.02 0.01 0.01 0.02 0.01 0.01 0.02 0.02 0.02 0.02 0.02 0.03 0.04 0.04 0.04 0.04 0.07 0.07 0.05 0.06 0.08 0.08 0.08 0.09 0.09 0.08 0.06 0.05 0.04 0.05 0.05 0.04
0.00 0.00 0.01 0.01 0.01 0.03 0.03 0.03 0.01 0.01 0.01 0.02 0.02 0.02 0.02 0.02 0.02 0.02 0.02 0.02 0.03 0.03 0.02 0.03 0.03 0.03 0.03 0.05 0.06 0.07 0.07 0.07 0.07 0.06 0.07 0.08 0.10 0.08 0.06 0.04 0.04 0.05 0.06
0.00 0.00 0.00 0.00 0.00 0.00 0.01 0.02 0.02 0.02 0.02 0.02 0.02 0.02 0.02 0.03 0.03 0.03 0.04 0.03 0.03 0.03 0.03 0.03 0.02 0.02 0.02 0.03 0.05 0.05 0.06 0.05 0.05 0.06 0.07 0.07 0.09 0.09 0.08 0.08 0.08 0.07 0.07
0.00 0.00 0.00 0.00 0.00 0.00 0.01 0.01 0.02 0.03 0.03 0.02 0.02 0.02 0.02 0.03 0.04 0.04 0.03 0.02 0.02 0.02 0.02 0.02 0.02 0.03 0.03 0.04 0.05 0.07 0.08 0.06 0.06 0.08 0.10 0.09 0.08 0.08 0.09 0.10 0.12 0.11 0.09
0.00 0.00 0.00 0.00 0.00 0.01 0.01 0.02 0.03 0.05 0.04 0.03 0.01 0.01 0.02 0.02 0.03 0.05 0.04 0.03 0.02 0.02 0.02 0.02 0.02 0.02 0.03 0.04 0.06 0.07 0.07 0.07 0.07 0.09 0.10 0.10 0.09 0.09 0.10 0.10 0.12 0.13 0.12
0.00 0.00 0.00 0.00 0.00 0.01 0.01 0.03 0.03 0.04 0.04 0.03 0.03 0.02 0.03 0.04 0.04 0.04 0.04 0.04 0.03 0.02 0.02 0.02 0.02 0.02 0.03 0.04 0.05 0.05 0.05 0.05 0.05 0.06 0.08 0.09 0.09 0.10 0.12 0.11 0.10 0.10 0.11
MSLP
1013.30 1013.06 1012.75 1012.42 1012.12 1011.88 1011.73 1011.66 1011.67 1011.73 1011.81 1011.89 1011.95 1012.00 1012.04 1012.07 1012.12 1012.18 1012.26 1012.35 1012.45 1012.54 1012.65 1012.77 1012.93 1013.12 1013.36 1013.63 1013.94 1014.25 1014.54 1014.80 1015.03 1015.22 1015.39 1015.55 1015.74 1015.94 1016.17 1016.42 1016.66 1016.89 1017.09
1013.25 1013.00 1012.70 1012.38 1012.09 1011.85 1011.68 1011.59 1011.57 1011.60 1011.66 1011.72 1011.78 1011.83 1011.88 1011.92 1011.97 1012.03 1012.10 1012.17 1012.26 1012.35 1012.47 1012.62 1012.82 1013.05 1013.33 1013.64 1013.96 1014.28 1014.57 1014.83 1015.05 1015.25 1015.44 1015.64 1015.86 1016.11 1016.38 1016.66 1016.92 1017.16 1017.36
1013.15 1012.92 1012.64 1012.35 1012.08 1011.85 1011.68 1011.58 1011.53 1011.52 1011.55 1011.59 1011.64 1011.68 1011.73 1011.77 1011.82 1011.86 1011.91 1011.96 1012.03 1012.12 1012.24 1012.41 1012.63 1012.90 1013.21 1013.55 1013.89 1014.21 1014.50 1014.75 1014.98 1015.18 1015.39 1015.62 1015.89 1016.18 1016.50 1016.81 1017.10 1017.35 1017.54
1013.04 1012.81 1012.57 1012.32 1012.08 1011.87 1011.71 1011.59 1011.52 1011.48 1011.47 1011.49 1011.51 1011.55 1011.59 1011.63 1011.66 1011.69 1011.72 1011.74 1011.79 1011.86 1011.98 1012.15 1012.39 1012.68 1013.01 1013.37 1013.72 1014.04 1014.33 1014.59 1014.81 1015.03 1015.27 1015.54 1015.84 1016.18 1016.53 1016.88 1017.20 1017.46 1017.65
1012.91 1012.70 1012.49 1012.28 1012.08 1011.90 1011.75 1011.62 1011.52 1011.45 1011.41 1011.39 1011.40 1011.43 1011.47 1011.51 1011.54 1011.55 1011.56 1011.56 1011.57 1011.62 1011.72 1011.88 1012.12 1012.42 1012.76 1013.12 1013.48 1013.81 1014.10 1014.36 1014.60 1014.84 1015.10 1015.41 1015.75 1016.12 1016.51 1016.89 1017.22 1017.50 1017.70
1012.79 1012.59 1012.40 1012.23 1012.07 1011.92 1011.78 1011.64 1011.52 1011.42 1011.35 1011.32 1011.32 1011.35 1011.39 1011.44 1011.48 1011.49 1011.48 1011.45 1011.44 1011.45 1011.52 1011.66 1011.88 1012.17 1012.51 1012.86 1013.22 1013.55 1013.85 1014.12 1014.38 1014.64 1014.94 1015.27 1015.64 1016.05 1016.47 1016.86 1017.21 1017.49 1017.69
1012.70 1012.49 1012.33 1012.18 1012.06 1011.93 1011.80 1011.66 1011.52 1011.40 1011.32 1011.27 1011.28 1011.32 1011.39 1011.46 1011.51 1011.53 1011.51 1011.47 1011.43 1011.41 1011.44 1011.54 1011.72 1011.98 1012.29 1012.63 1012.97 1013.30 1013.61 1013.90 1014.17 1014.47 1014.78 1015.15 1015.55 1015.97 1016.40 1016.80 1017.15 1017.43 1017.65
1012.64 1012.43 1012.27 1012.15 1012.05 1011.94 1011.82 1011.68 1011.54 1011.41 1011.32 1011.28 1011.30 1011.37 1011.46 1011.56 1011.64 1011.68 1011.66 1011.61 1011.54 1011.48 1011.47 1011.52 1011.64 1011.85 1012.12 1012.42 1012.75 1013.07 1013.38 1013.68 1013.98 1014.30 1014.65 1015.03 1015.45 1015.88 1016.31 1016.71 1017.05 1017.34 1017.55
1012.63 1012.41 1012.25 1012.15 1012.06 1011.96 1011.85 1011.72 1011.58 1011.45 1011.37 1011.34 1011.38 1011.47 1011.60 1011.73 1011.83 1011.89 1011.88 1011.82 1011.73 1011.63 1011.56 1011.55 1011.62 1011.77 1011.98 1012.24 1012.53 1012.83 1013.14 1013.45 1013.77 1014.11 1014.49 1014.89 1015.31 1015.75 1016.17 1016.56 1016.89 1017.17 1017.40
1012.67 1012.44 1012.29 1012.18 1012.11 1012.02 1011.92 1011.79 1011.65 1011.53 1011.45 1011.43 1011.48 1011.59 1011.74 1011.89 1012.01 1012.08 1012.08 1012.01 1011.89 1011.76 1011.65 1011.59 1011.59 1011.67 1011.82 1012.03 1012.28 1012.55 1012.85 1013.17 1013.51 1013.87 1014.26 1014.67 1015.10 1015.53 1015.94 1016.32 1016.64 1016.92 1017.15
1012.76 1012.53 1012.37 1012.27 1012.20 1012.12 1012.01 1011.88 1011.74 1011.62 1011.53 1011.51 1011.56 1011.66 1011.81 1011.97 1012.09 1012.16 1012.15 1012.07 1011.95 1011.79 1011.64 1011.53 1011.48 1011.51 1011.59 1011.75 1011.96 1012.20 1012.48 1012.80 1013.14 1013.52 1013.92 1014.35 1014.78 1015.20 1015.60 1015.97 1016.28 1016.56 1016.81
1012.88 1012.65 1012.50 1012.40 1012.33 1012.24 1012.13 1011.99 1011.84 1011.70 1011.59 1011.55 1011.57 1011.65 1011.77 1011.90 1012.00 1012.05 1012.03 1011.95 1011.82 1011.65 1011.49 1011.35 1011.27 1011.24 1011.29 1011.39 1011.55 1011.77 1012.03 1012.33 1012.67 1013.05 1013.47 1013.90 1014.33 1014.75 1015.15 1015.51 1015.82 1016.11 1016.38
1013.01 1012.80 1012.66 1012.56 1012.47 1012.38 1012.25 1012.10 1011.92 1011.75 1011.61 1011.52 1011.48 1011.51 1011.58 1011.65 1011.72 1011.74 1011.71 1011.63 1011.50 1011.34 1011.18 1011.04 1010.94 1010.90 1010.91 1010.98 1011.10 1011.27 1011.50 1011.78 1012.12 1012.49 1012.91 1013.34 1013.78 1014.20 1014.60 1014.96 1015.29 1015.59 1015.88
1013.14 1012.95 1012.81 1012.71 1012.61 1012.50 1012.35 1012.17 1011.97 1011.75 1011.56 1011.41 1011.31 1011.27 1011.26 1011.27 1011.28 1011.27 1011.23 1011.15 1011.03 1010.90 1010.77 1010.65 1010.56 1010.51 1010.51 1010.54 1010.63 1010.77 1010.97 1011.22 1011.53 1011.89 1012.30 1012.73 1013.17 1013.59 1014.00 1014.38 1014.72 1015.05 1015.37
1013.24 1013.07 1012.94 1012.83 1012.73 1012.60 1012.43 1012.22 1011.98 1011.72 1011.48 1011.26 1011.09 1010.97 1010.88 1010.83 1010.78 1010.73 1010.68 1010.60 1010.52 1010.42 1010.33 1010.26 1010.20 1010.16 1010.15 1010.17 1010.22 1010.32 1010.48 1010.69 1010.97 1011.31 1011.70 1012.12 1012.56 1013.00 1013.41 1013.80 1014.17 1014.52 1014.87
1013.30 1013.16 1013.03 1012.93 1012.81 1012.66 1012.47 1012.23 1011.96 1011.67 1011.38 1011.11 1010.88 1010.68 1010.52 1010.40 1010.31 1010.23 1010.16 1010.10 1010.04 1009.99 1009.95 1009.92 1009.90 1009.88 1009.87 1009.88 1009.91 1009.97 1010.09 1010.26 1010.50 1010.81 1011.18 1011.58 1012.02 1012.45 1012.87 1013.28 1013.66 1014.04 1014.41
1013.34 1013.20 1013.08 1012.97 1012.84 1012.68 1012.47 1012.22 1011.94 1011.63 1011.31 1011.00 1010.72 1010.47 1010.26 1010.08 1009.94 1009.84 1009.76 1009.71 1009.67 1009.66 1009.66 1009.67 1009.68 1009.68 1009.68 1009.68 1009.69 1009.73 1009.80 1009.94 1010.15 1010.42 1010.76 1011.14 1011.56 1011.98 1012.41 1012.82 1013.21 1013.60 1013.98
1013.33 1013.21 1013.09 1012.97 1012.83 1012.66 1012.45 1012.20 1011.91 1011.59 1011.27 1010.95 1010.64 1010.36 1010.11 1009.90 1009.72 1009.58 1009.49 1009.43 1009.40 1009.41 1009.43 1009.46 1009.49 1009.51 1009.52 1009.52 1009.52 1009.54 1009.59 1009.70 1009.88 1010.12 1010.43 1010.79 1011.19 1011.60 1012.00 1012.40 1012.79 1013.17 1013.55
1013.30 1013.18 1013.05 1012.93 1012.78 1012.60 1012.39 1012.15 1011.87 1011.57 1011.25 1010.94 1010.63 1010.33 1010.06 1009.81 1009.60 1009.42 1009.29 1009.20 1009.15 1009.15 1009.17 1009.20 1009.24 1009.27 1009.29 1009.30 1009.31 1009.33 1009.39 1009.49 1009.66 1009.89 1010.18 1010.51 1010.88 1011.26 1011.64 1012.01 1012.37 1012.72 1013.09
1013.25 1013.12 1012.99 1012.85 1012.69 1012.51 1012.30 1012.07 1011.81 1011.53 1011.23 1010.93 1010.63 1010.33 1010.04 1009.76 1009.50 1009.27 1009.08 1008.93 1008.83 1008.78 1008.77 1008.78 1008.82 1008.86 1008.90 1008.93 1008.97 1009.03 1009.11 1009.24 1009.42 1009.66 1009.94 1010.26 1010.60 1010.95 1011.29 1011.61 1011.92 1012.24 1012.57
1013.18 1013.04 1012.89 1012.74 1012.57 1012.38 1012.17 1011.95 1011.70 1011.44 1011.17 1010.89 1010.59 1010.29 1009.97 1009.65 1009.33 1009.03 1008.75 1008.52 1008.34 1008.21 1008.14 1008.12 1008.14 1008.19 1008.26 1008.35 1008.45 1008.57 1008.72 1008.90 1009.13 1009.39 1009.69 1010.01 1010.33 1010.64 1010.93 1011.20 1011.46 1011.72 1012.00
1013.09 1012.95 1012.79 1012.62 1012.43 1012.23 1012.01 1011.78 1011.54 1011.29 1011.04 1010.77 1010.47 1010.16 1009.81 1009.43 1009.04 1008.64 1008.27 1007.92 1007.63 1007.42 1007.27 1007.21 1007.21 1007.28 1007.39 1007.55 1007.74 1007.95 1008.20 1008.47 1008.77 1009.08 1009.41 1009.74 1010.04 1010.33 1010.58 1010.80 1011.00 1011.20 1011.42
1013.01 1012.85 1012.68 1012.48 1012.27 1012.05 1011.82 1011.58 1011.33 1011.09 1010.84 1010.57 1010.27 1009.93 1009.54 1009.10 1008.62 1008.12 1007.62 1007.16 1006.76 1006.44 1006.22 1006.11 1006.11 1006.20 1006.37 1006.61 1006.91 1007.24 1007.59 1007.97 1008.35 1008.74 1009.10 1009.45 1009.75 1010.02 1010.23 1010.41 1010.57 1010.72 1010.90
1012.91 1012.75 1012.57 1012.35 1012.12 1011.87 1011.61 1011.35 1011.10 1010.85 1010.59 1010.32 1010.01 1009.64 1009.20 1008.70 1008.14 1007.53 1006.92 1006.34 1005.83 1005.42 1005.13 1004.98 1004.97 1005.10 1005.34 1005.67 1006.07 1006.51 1006.98 1007.46 1007.93 1008.38 1008.79 1009.16 1009.47 1009.72 1009.92 1010.08 1010.21 1010.34 1010.49
1012.81 1012.64 1012.45 1012.22 1011.96 1011.68 1011.40 1011.13 1010.86 1010.61 1010.35 1010.07 1009.74 1009.35 1008.88 1008.32 1007.68 1006.99 1006.29 1005.61 1005.01 1004.52 1004.18 1004.00 1004.00 1004.16 1004.46 1004.87 1005.36 1005.90 1006.47 1007.02 1007.56 1008.05 1008.49 1008.87 1009.19 1009.45 1009.65 1009.81 1009.94 1010.07 1010.23
1012.66 1012.50 1012.30 1012.05 1011.78 1011.48 1011.19 1010.91 1010.64 1010.39 1010.14 1009.86 1009.54 1009.14 1008.64 1008.05 1007.37 1006.62 1005.85 1005.10 1004.44 1003.90 1003.53 1003.34 1003.34 1003.53 1003.88 1004.34 1004.89 1005.49 1006.10 1006.70 1007.26 1007.77 1008.22 1008.60 1008.92 1009.19 1009.40 1009.58 1009.74 1009.91 1010.10
Thickness
5710 5712 5715 5718 5721 5724 5727 5730 5733 5735 5737 5739 5742 5745 5747 5749 5751 5753 5755 5756 5757 5758 5758 5758 5757 5756 5756 5755 5754 5753 5752 5751 5751 5751 5750 5750 5750 5750 5750 5750 5750 5750 5750
5704 5705 5707 5711 5714 5717 5721 5725 5727 5730 5732 5735 5737 5741 5743 5746 5748 5751 5753 5754 5756 5757 5757 5757 5756 5756 5755 5754 5753 5752 5751 5751 5750 5750 5749 5749 5749 5748 5748 5748 5748 5748 5748
5698 5699 5700 5703 5707 5711 5715 5718 5722 5724 5727 5730 5733 5736 5739 5742 5745 5748 5750 5751 5753 5754 5754 5755 5755 5755 5754 5753 5753 5752 5751 5750 5749 5749 5748 5748 5747 5747 5746 5746 5746 5746 5746
5691 5692 5694 5696 5700 5704 5708 5711 5714 5716 5719 5723 5726 5730 5734 5737 5741 5743 5745 5747 5749 5750 5751 5753 5753 5753 5753 5752 5752 5751 5750 5749 5748 5748 5747 5747 5746 5745 5745 5744 5744 5744 5744
5686 5686 5687 5689 5693 5696 5700 5704 5707 5709 5712 5716 5720 5724 5728 5731 5735 5739 5740 5742 5744 5746 5748 5750 5750 5751 5751 5751 5750 5749 5748 5747 5747 5746 5746 5745 5745 5744 5743 5743 5742 5742 5742
5681 5681 5681 5683 5686 5688 5692 5695 5699 5703 5706 5709 5714 5718 5721 5725 5730 5733 5735 5737 5739 5742 5744 5746 5747 5748 5749 5749 5749 5748 5747 5746 5745 5745 5744 5744 5743 5743 5742 5741 5741 5741 5740
5676 5676 5676 5677 5679 5682 5685 5689 5692 5695 5698 5703 5704 5707 5713 5719 5723 5727 5730 5732 5735 5738 5740 5742 5744 5745 5745 5746 5747 5746 5745 5745 5744 5744 5743 5742 5742 5741 5740 5740 5739 5739 5738
5672 5672 5671 5672 5674 5676 5679 5682 5686 5687 5691 5696 5696 5696 5698 5705 5713 5721 5724 5727 5729 5733 5735 5738 5740 5741 5742 5743 5744 5744 5744 5743 5743 5742 5742 5741 5740 5739 5739 5738 5737 5737 5736
5669 5669 5668 5669 5671 5672 5674 5677 5680 5682 5683 5688 5692 5692 5690 5692 5700 5709 5716 5720 5723 5726 5730 5733 5736 5737 5739 5740 5740 5741 5741 5741 5741 5740 5740 5739 5738 5738 5737 5736 5735 5734 5734
5666 5666 5666 5666 5667 5669 5670 5672 5676 5677 5679 5680 5684 5689 5691 5694 5693 5696 5705 5712 5716 5720 5724 5728 5731 5733 5734 5735 5736 5737 5738 5738 5738 5738 5738 5737 5737 5736 5735 5734 5733 5732 5731
5663 5663 5663 5664 5664 5666 5667 5669 5672 5673 5675 5676 5678 5681 5685 5688 5691 5691 5693 5700 5707 5713 5718 5722 5725 5728 5729 5731 5732 5733 5734 5734 5735 5735 5735 5735 5734 5733 5732 5732 5731 5730 5729
5660 5660 5661 5661 5662 5663 5665 5666 5668 5669 5671 5673 5674 5676 5679 5680 5683 5686 5687 5691 5696 5704 5710 5715 5719 5722 5724 5726 5727 5729 5730 5730 5730 5731 5731 5731 5731 5730 5730 5729 5728 5727 5726
5657 5657 5659 5659 5660 5661 5663 5664 5665 5666 5667 5668 5670 5672 5675 5677 5680 5682 5683 5685 5688 5695 5702 5707 5712 5716 5718 5721 5722 5724 5724 5725 5725 5726 5727 5727 5727 5726 5726 5725 5725 5724 5723
5656 5657 5657 5658 5658 5659 5660 5661 5661 5662 5663 5665 5666 5668 5670 5673 5676 5679 5680 5680 5681 5685 5692 5698 5705 5709 5713 5715 5717 5718 5718 5719 5720 5721 5722 5722 5722 5722 5722 5721 5721 5720 5720
5658 5657 5656 5656 5656 5657 5657 5658 5658 5659 5660 5661 5662 5664 5666 5669 5672 5675 5678 5680 5678 5677 5682 5690 5696 5703 5706 5708 5711 5712 5713 5714 5715 5716 5717 5717 5717 5717 5717 5716 5716 5715 5715
5658 5656 5655 5654 5654 5654 5655 5655 5655 5656 5656 5657 5658 5659 5662 5664 5667 5670 5673 5675 5677 5677 5678 5684 5690 5696 5699 5702 5704 5705 5707 5708 5709 5710 5711 5712 5712 5711 5711 5711 5711 5710 5709
5659 5657 5655 5654 5653 5653 5653 5653 5652 5653 5653 5653 5654 5656 5658 5660 5663 5666 5669 5671 5673 5675 5675 5679 5684 5689 5692 5694 5696 5698 5699 5700 5702 5704 5705 5705 5706 5706 5706 5705 5705 5704 5704
5660 5658 5656 5655 5653 5652 5652 5651 5651 5651 5650 5650 5651 5652 5654 5657 5658 5661 5664 5666 5668 5671 5672 5673 5677 5680 5683 5687 5689 5690 5692 5694 5695 5697 5698 5699 5699 5699 5699 5699 5699 5698 5698
5661 5659 5657 5655 5654 5653 5652 5651 5651 5650 5649 5648 5649 5649 5651 5652 5654 5656 5659 5661 5663 5667 5668 5669 5670 5673 5676 5679 5680 5682 5684 5686 5688 5689 5690 5692 5692 5692 5693 5693 5693 5692 5692
5662 5659 5658 5656 5655 5654 5653 5652 5650 5649 5648 5648 5648 5649 5650 5650 5652 5653 5655 5656 5659 5660 5662 5664 5664 5666 5668 5671 5672 5673 5674 5677 5679 5682 5683 5684 5685 5685 5686 5687 5687 5686 5686
5663 5661 5659 5657 5656 5655 5654 5652 5651 5650 5648 5648 5648 5649 5649 5650 5652 5652 5653 5653 5655 5655 5657 5658 5659 5660 5661 5663 5665 5667 5667 5669 5671 5674 5675 5677 5678 5678 5679 5680 5680 5680 5680
5664 5661 5659 5657 5656 5656 5655 5655 5653 5650 5649 5648 5647 5648 5648 5649 5650 5651 5652 5653 5653 5653 5654 5654 5655 5656 5657 5659 5660 5661 5661 5661 5662 5667 5667 5668 5670 5671 5673 5674 5674 5674 5674
5664 5662 5659 5657 5656 5655 5656 5656 5655 5652 5650 5648 5647 5647 5648 5649 5648 5648 5650 5651 5651 5653 5654 5653 5653 5654 5655 5656 5656 5656 5656 5657 5658 5661 5660 5661 5663 5664 5666 5667 5668 5668 5668
5664 5662 5660 5658 5656 5656 5657 5656 5655 5652 5650 5648 5647 5646 5646 5646 5647 5647 5647 5647 5647 5649 5651 5652 5652 5653 5654 5654 5654 5655 5654 5653 5653 5654 5655 5654 5656 5658 5660 5661 5661 5662 5662
5665 5663 5661 5659 5657 5656 5657 5656 5655 5652 5649 5648 5647 5647 5646 5646 5647 5646 5645 5644 5645 5646 5649 5650 5651 5651 5652 5652 5651 5650 5648 5647 5647 5648 5649 5650 5651 5651 5652 5654 5656 5656 5656
5667 5665 5662 5660 5658 5657 5658 5657 5655 5651 5648 5647 5647 5646 5646 5646 5646 5645 5643 5643 5642 5644 5645 5647 5647 5648 5648 5648 5649 5648 5647 5645 5644 5643 5645 5645 5645 5645 5645 5647 5649 5649 5649